This is the latest recevied weather packets stored in our database for station/object ENBN. If no packets are shown the sender has not sent any weather packets the latest 10 day(s).
| Time | Temp. | Humidity | Pressure | Rain* | Wind** | Luminosity | Snow |
|---|---|---|---|---|---|---|---|
| 1788352387 | 12.78° C | 87% | 1003 hPa | - | - | - | - |
| 1788350586 | 12.78° C | 81% | 1003 hPa | - | - | - | - |
| 1788348787 | 12.78° C | 87% | 1003 hPa | - | - | - | - |
| 1788346989 | 12.78° C | 87% | 1003 hPa | - | - | - | - |
| 1788345187 | 12.78° C | 87% | 1003 hPa | - | - | - | - |
| 1788343388 | 12.78° C | 87% | 1003 hPa | - | - | - | - |
| 1788341588 | 11.67° C | 87% | 1003 hPa | - | - | - | - |
| 1788339787 | 11.67° C | 87% | 1003 hPa | - | - | - | - |
| 1788337987 | 11.67° C | 87% | 1003 hPa | - | - | - | - |
| 1788336188 | 11.67° C | 81% | 1003 hPa | - | - | - | - |
| 1788334387 | 12.78° C | 76% | 1002 hPa | - | - | - | - |
| 1788332588 | 12.78° C | 71% | 1002 hPa | - | - | - | - |
| 1788328988 | 11.67° C | 76% | 1002 hPa | - | - | - | - |
| 1788327187 | 10.56° C | 76% | 1002 hPa | - | - | - | - |
| 1788325387 | 10.56° C | 76% | 1002 hPa | - | - | - | - |
| 1788323587 | 10.56° C | 76% | 1002 hPa | - | - | - | - |
| 1788321787 | 10.56° C | 76% | 1002 hPa | - | - | - | - |
| 1788319987 | 10.56° C | 71% | 1002 hPa | - | - | - | - |
| 1788318187 | 10.56° C | 76% | 1003 hPa | - | - | - | - |
| 1788316387 | 10.56° C | 76% | 1003 hPa | - | - | - | - |
| 1788314587 | 10° C | 81% | 1003 hPa | - | - | - | - |
| 1788312787 | 10° C | 81% | 1004 hPa | - | - | - | - |
| 1788309187 | 8.89° C | 93% | 1004 hPa | - | - | - | - |
| 1788307387 | 7.78° C | 93% | 1005 hPa | - | - | - | - |
| 1788305588 | 8.89° C | 93% | 1005 hPa | - | - | - | - |
* Rain since midnight (hover to see other rain measurements)
** Current wind speed in m/s (hover to see current wind gust speed)